Tiempo cada hora Cayo Coco

Hoy, 27 Enero, Miércoles

Tiempo Temperatura Precipitaciones Viento Presión Humedad
00:00 +24°C° 0 mm 6 mps 762 mmHg 90%
01:00 +23°C° 0 mm 5 mps 762 mmHg 92%
02:00 +23°C° 0.1 mm 5 mps 762 mmHg 92%
03:00 +23°C° 0.1 mm 5 mps 762 mmHg 92%
04:00 +23°C° 0.1 mm 5 mps 761 mmHg 92%
05:00 +23°C° 0.1 mm 5 mps 762 mmHg 93%
06:00 +23°C° 0.1 mm 5 mps 762 mmHg 93%
07:00 +23°C° 0.1 mm 5 mps 763 mmHg 93%
08:00 +25°C° 0.1 mm 4 mps 763 mmHg 86%
09:00 +27°C° 0.1 mm 4 mps 763 mmHg 78%
10:00 +28°C° 0.1 mm 4 mps 764 mmHg 71%
11:00 +29°C° 0 mm 4 mps 763 mmHg 66%
12:00 +30°C° 0 mm 3 mps 763 mmHg 60%
13:00 +33°C° 0 mm 3 mps 762 mmHg 54%
14:00 +32°C° 0 mm 4 mps 762 mmHg 58%
15:00 +32°C° 0 mm 4 mps 762 mmHg 61%
16:00 +30°C° 0 mm 5 mps 761 mmHg 65%
17:00 +29°C° 0 mm 5 mps 762 mmHg 72%
18:00 +27°C° 0 mm 5 mps 762 mmHg 79%
19:00 +26°C° 0 mm 5 mps 763 mmHg 86%
20:00 +26°C° 0 mm 5 mps 763 mmHg 88%
21:00 +25°C° 0 mm 4 mps 763 mmHg 89%
22:00 +25°C° 0 mm 4 mps 764 mmHg 91%
23:00 +25°C° 0 mm 4 mps 763 mmHg 91%

Mañana, 28 Enero, Jueves

Tiempo Temperatura Precipitaciones Viento Presión Humedad
00:00 +25°C° 0 mm 3 mps 763 mmHg 92%
01:00 +24°C° 0 mm 3 mps 763 mmHg 92%
02:00 +24°C° 0 mm 2 mps 763 mmHg 92%
03:00 +24°C° 0 mm 1 mps 762 mmHg 92%
04:00 +24°C° 0 mm 1 mps 762 mmHg 92%
05:00 +24°C° 0 mm 1 mps 762 mmHg 92%
06:00 +24°C° 0 mm 1 mps 763 mmHg 91%
07:00 +24°C° 0 mm 2 mps 763 mmHg 91%
08:00 +25°C° 0 mm 2 mps 763 mmHg 84%
09:00 +26°C° 0 mm 3 mps 764 mmHg 76%
10:00 +28°C° 0 mm 3 mps 764 mmHg 69%
11:00 +28°C° 0 mm 4 mps 764 mmHg 67%
12:00 +28°C° 0 mm 5 mps 764 mmHg 65%
13:00 +29°C° 0 mm 5 mps 763 mmHg 63%
14:00 +28°C° 0 mm 5 mps 763 mmHg 64%
15:00 +28°C° 0 mm 6 mps 763 mmHg 66%
16:00 +27°C° 0 mm 6 mps 762 mmHg 67%
17:00 +27°C° 0.1 mm 8 mps 763 mmHg 73%
18:00 +26°C° 0.1 mm 10 mps 763 mmHg 78%
19:00 +24°C° 0.1 mm 12 mps 764 mmHg 84%
20:00 +24°C° 0 mm 12 mps 764 mmHg 81%
21:00 +23°C° 0 mm 11 mps 765 mmHg 78%
22:00 +22°C° 0 mm 11 mps 765 mmHg 74%
23:00 +22°C° 0 mm 11 mps 765 mmHg 74%

Pasado mañana, 29 Enero, Viernes

Tiempo Temperatura Precipitaciones Viento Presión Humedad
00:00 +21°C° 0 mm 10 mps 765 mmHg 73%
01:00 +21°C° 0 mm 10 mps 765 mmHg 73%
02:00 +21°C° 0 mm 10 mps 764 mmHg 73%
03:00 +21°C° 0 mm 10 mps 764 mmHg 73%
04:00 +21°C° 0 mm 10 mps 763 mmHg 73%
05:00 +21°C° 0 mm 9 mps 764 mmHg 71%
06:00 +21°C° 0 mm 9 mps 764 mmHg 69%
07:00 +21°C° 0 mm 9 mps 765 mmHg 68%
08:00 +21°C° 0.1 mm 9 mps 765 mmHg 68%
09:00 +21°C° 0.1 mm 9 mps 765 mmHg 69%
10:00 +21°C° 0.1 mm 9 mps 766 mmHg 69%
11:00 +22°C° 0 mm 9 mps 766 mmHg 67%
12:00 +23°C° 0 mm 9 mps 765 mmHg 65%
13:00 +23°C° 0 mm 9 mps 765 mmHg 64%
14:00 +23°C° 0 mm 8 mps 765 mmHg 63%
15:00 +23°C° 0 mm 8 mps 764 mmHg 63%
16:00 +23°C° 0 mm 8 mps 764 mmHg 63%
17:00 +22°C° 0 mm 8 mps 764 mmHg 64%
18:00 +22°C° 0 mm 8 mps 765 mmHg 64%
19:00 +21°C° 0 mm 8 mps 765 mmHg 65%
20:00 +21°C° 0 mm 8 mps 765 mmHg 66%
21:00 +21°C° 0 mm 9 mps 765 mmHg 68%
22:00 +21°C° 0 mm 9 mps 765 mmHg 69%
23:00 +21°C° 0 mm 9 mps 765 mmHg 68%

30 Enero, Sábado

Tiempo Temperatura Precipitaciones Viento Presión Humedad
00:00 +22°C° 0 mm 9 mps 765 mmHg 68%
01:00 +22°C° 0 mm 9 mps 765 mmHg 67%
02:00 +22°C° 0 mm 9 mps 764 mmHg 67%
03:00 +22°C° 0 mm 9 mps 764 mmHg 68%
04:00 +22°C° 0 mm 8 mps 764 mmHg 68%
05:00 +21°C° 0.1 mm 9 mps 764 mmHg 69%
06:00 +21°C° 0.1 mm 9 mps 764 mmHg 69%
07:00 +21°C° 0.1 mm 9 mps 764 mmHg 69%
08:00 +22°C° 0 mm 9 mps 765 mmHg 67%
09:00 +23°C° 0 mm 10 mps 765 mmHg 66%
10:00 +24°C° 0 mm 10 mps 765 mmHg 64%
11:00 +24°C° 0 mm 10 mps 765 mmHg 63%
12:00 +24°C° 0 mm 10 mps 764 mmHg 62%
13:00 +26°C° 0 mm 10 mps 764 mmHg 61%
14:00 +24°C° 0 mm 10 mps 764 mmHg 62%
15:00 +24°C° 0 mm 10 mps 763 mmHg 64%
16:00 +24°C° 0 mm 10 mps 763 mmHg 65%
17:00 +23°C° 0 mm 9 mps 763 mmHg 67%
18:00 +23°C° 0 mm 9 mps 763 mmHg 69%
19:00 +22°C° 0 mm 9 mps 764 mmHg 70%
20:00 +22°C° 0 mm 9 mps 764 mmHg 71%
21:00 +22°C° 0 mm 9 mps 764 mmHg 72%
22:00 +22°C° 0 mm 9 mps 764 mmHg 72%
23:00 +22°C° 0 mm 9 mps 764 mmHg 74%

31 Enero, Domingo

Tiempo Temperatura Precipitaciones Viento Presión Humedad
00:00 +22°C° 0 mm 9 mps 764 mmHg 75%
01:00 +22°C° 0 mm 9 mps 763 mmHg 76%
02:00 +22°C° 0 mm 8 mps 763 mmHg 78%
03:00 +21°C° 0 mm 8 mps 763 mmHg 80%
04:00 +21°C° 0 mm 7 mps 763 mmHg 81%
05:00 +21°C° 0 mm 7 mps 763 mmHg 80%
06:00 +22°C° 0 mm 7 mps 763 mmHg 79%
07:00 +22°C° 0 mm 7 mps 763 mmHg 78%
08:00 +23°C° 0 mm 7 mps 763 mmHg 74%
09:00 +26°C° 0 mm 6 mps 764 mmHg 69%
10:00 +27°C° 0 mm 6 mps 764 mmHg 65%
11:00 +28°C° 0 mm 7 mps 764 mmHg 63%
12:00 +28°C° 0 mm 7 mps 763 mmHg 61%
13:00 +29°C° 0 mm 7 mps 762 mmHg 59%
14:00 +29°C° 0 mm 7 mps 762 mmHg 59%
15:00 +29°C° 0 mm 7 mps 761 mmHg 59%
16:00 +29°C° 0 mm 7 mps 761 mmHg 60%
17:00 +28°C° 0 mm 7 mps 761 mmHg 66%
18:00 +27°C° 0 mm 7 mps 761 mmHg 73%
19:00 +24°C° 0 mm 7 mps 761 mmHg 80%
20:00 +24°C° 0 mm 7 mps 762 mmHg 83%
21:00 +23°C° 0 mm 6 mps 762 mmHg 86%
22:00 +23°C° 0 mm 6 mps 762 mmHg 89%
23:00 +23°C° 0 mm 5 mps 762 mmHg 90%

1 Febrero, Lunes

Tiempo Temperatura Precipitaciones Viento Presión Humedad
00:00 +22°C° 0 mm 5 mps 762 mmHg 91%
01:00 +22°C° 0 mm 5 mps 761 mmHg 92%
02:00 +22°C° 0 mm 4 mps 761 mmHg 93%
03:00 +21°C° 0 mm 4 mps 761 mmHg 94%
04:00 +21°C° 0 mm 4 mps 760 mmHg 94%
05:00 +21°C° 0 mm 4 mps 761 mmHg 94%
06:00 +21°C° 0 mm 4 mps 761 mmHg 94%
07:00 +21°C° 0 mm 4 mps 761 mmHg 94%
08:00 +22°C° 0 mm 4 mps 761 mmHg 85%
09:00 +25°C° 0 mm 4 mps 762 mmHg 76%
10:00 +27°C° 0 mm 4 mps 762 mmHg 67%
11:00 +28°C° 0 mm 4 mps 761 mmHg 62%
12:00 +29°C° 0 mm 5 mps 761 mmHg 57%
13:00 +30°C° 0 mm 5 mps 760 mmHg 52%
14:00 +29°C° 0 mm 5 mps 760 mmHg 54%
15:00 +29°C° 0 mm 6 mps 760 mmHg 56%
16:00 +28°C° 0 mm 6 mps 759 mmHg 57%
17:00 +27°C° 0 mm 6 mps 759 mmHg 63%
18:00 +26°C° 0 mm 6 mps 760 mmHg 69%
19:00 +24°C° 0 mm 6 mps 760 mmHg 75%
20:00 +24°C° 0 mm 6 mps 760 mmHg 78%
21:00 +23°C° 0 mm 7 mps 761 mmHg 82%
22:00 +23°C° 0 mm 8 mps 761 mmHg 85%
23:00 +23°C° 0 mm 8 mps 761 mmHg 84%
Mostrar más